Location: Bucquoy
(50.1391°N, 2.7097°E)
Time: 09:16:59
(UTC+00:00)

Meteor 1-12 Rocket - Pass Details

Date: 06 May 2021
Orbit: 854 x 927 km, 81.2° (Epoch: 21 June)

Event Time Altitude Azimuth Distance (km) Brightness Sun altitude
Rises 00:46:27 0° 345° (NNW) 3,565 8.4 -22.0°
Reaches altitude 10° 00:48:58 10° 343° (NNW) 2,610 7.5 -21.9°
Maximum altitude 00:54:50 63° 263° (W) 1,000 4.4 -21.6°
Enters shadow 00:56:35 44° 204° (SSW) 1,229 4.5 -21.5°
